Vertical_Velocity
1 -0 1 -1 -0 -0 2 2 4 2 -1 2 8 7 3 3 1 -1 5 -3 2 2 -2 0 -0 -1 -0 1 1 -1 -2 -1
-1 1 1 0 0 3 -0 1 -4 -2 3 1 1 3 -3 9 -2 1 -2 -5 4 -2 -0 1 -1 -1 1 0 2 1 -1 -2
-0 1 -2 0 0 4 3 -3 -1 -2 -4 -1 1 -1 5 3 4 -6 3 -6 -0 -1 -2 1 -1 -2 -3 2 3 -1 -0 -1
-4 2 -1 -1 -3 -5 -2 0 1 -3 -1 2 -1 -1 -0 -7 1 1 0 -3 -1 -2 -3 -2 -1 -1 -2 -5 0 2 -0 0
3 -1 4 0 2 1 3 0 -2 5 1 -4 5 -8 -3 -0 -6 5 -2 1 -2 -1 -1 -2 -1 -0 -1 -3 -2 -0 3 3
2 -3 -2 4 -3 -4 -0 -4 -3 2 -1 -3 -1 2 5 3 -4 4 0 1 0 -0 -0 -0 0 0 1 -0 -1 -1 -0 -0
-2 4 2 7 -2 3 -3 2 0 -5 -1 -4 -2 6 0 -1 -3 0 1 0 -1 -0 -0 1 2 -1 -1 1 0 -0 0 2
3 3 -4 2 -3 6 -1 0 4 5 1 -4 1 -4 -6 -4 -5 -4 -2 1 1 3 4 2 0 1 2 0 -1 -1 -2 -2
1 9 7 1 -3 -2 4 -2 4 -2 -1 -0 -4 -3 -5 -3 -5 -1 -3 -2 -1 1 -1 0 2 -1 1 -0 2 1 0 -1
5 4 5 12 -5 -2 4 1 -2 -2 -1 0 -0 -1 0 -0 -2 -3 0 1 0 -1 -0 2 0 0 6 3 -0 1 -0 -4
7 6 2 44 -1 6 -7 -5 -3 -2 -1 -2 -3 -4 -5 -3 1 1 3 2 -0 -0 -1 -4 0 0 0 2 1 2 -6 1
6 17 19 22 1 5 -2 -2 -3 -0 -0 -0 -2 -2 1 -2 -3 -4 -5 -4 -3 -1 -1 -0 -7 -6 1 -0 0 1 -1 -4
16 19 5 1 4 -1 1 -1 0 4 -1 -2 -3 -4 -3 -1 -1 -4 -5 -6 -5 -6 -2 -3 3 -9 -9 -2 -1 2 -0 0
2 4 -0 5 5 4 3 1 -1 -1 -1 -2 -3 -3 -4 -4 -5 -4 -3 -5 -8 -7 -9 -6 -5 -14 -12 -9 -9 15 -1 -1
-1 -3 -3 -2 1 0 -0 -2 -4 -3 -0 -4 -4 -0 -3 -7 -9 -8 -7 -2 -4 -2 -1 -3 -0 7 -6 -8 -3 -2 1 22
-4 -4 -3 -3 -2 -1 -4 -4 -5 -7 -7 -5 -7 -5 -4 -1 1 0 2 1 -2 -5 -7 -7 -9 -12 0 -10 -12 -20 -16 -18
-3 -2 -1 0 -0 1 3 2 -0 -0 -1 1 1 3 4 -0 -2 -4 -4 -8 -7 -5 -5 -6 -6 -4 -7 -4 -7 -3 -3 -13
-5 -4 -3 -1 -1 -1 -1 2 3 2 1 4 5 1 1 4 4 3 4 1 -4 -7 -6 -6 -5 -3 -2 -2 -1 -5 2 -1
4 5 2 -0 0 4 6 7 5 5 4 2 2 -1 -4 -4 -4 -6 -5 -3 -4 1 1 -0 1 -1 -3 -2 -3 -6 -2 -5
2 3 5 4 3 0 -1 -3 0 -1 -3 -1 -0 -2 -3 -3 1 3 4 6 -1 2 3 0 6 -2 -4 -2 -5 -5 -9 -5
Height
5831 5833 5833 5833 5832 5832 5832 5832 5832 5831 5829 5827 5825 5823 5821 5818 5816 5813 5811 5810 5807 5805 5803 5800 5798 5795 5793 5791 5789 5787 5786 5784
5831 5832 5832 5832 5831 5831 5831 5831 5830 5828 5826 5825 5823 5820 5817 5814 5812 5810 5807 5805 5802 5800 5798 5796 5793 5791 5788 5785 5783 5782 5782 5780
5830 5830 5830 5830 5829 5828 5829 5828 5827 5825 5824 5822 5819 5817 5813 5811 5808 5805 5803 5801 5798 5795 5792 5790 5787 5784 5782 5780 5777 5776 5775 5774
5829 5829 5828 5827 5827 5827 5825 5824 5823 5821 5819 5818 5815 5813 5810 5808 5804 5800 5798 5794 5792 5789 5786 5783 5780 5777 5774 5772 5769 5770 5769 5768
5828 5827 5826 5826 5826 5825 5823 5822 5820 5819 5817 5814 5811 5809 5806 5803 5800 5796 5792 5789 5785 5781 5778 5775 5773 5771 5768 5766 5762 5761 5762 5762
5826 5824 5823 5823 5822 5821 5818 5816 5814 5812 5811 5809 5807 5803 5800 5797 5793 5790 5786 5782 5778 5774 5772 5769 5767 5765 5764 5761 5758 5755 5753 5752
5822 5822 5821 5820 5818 5816 5812 5813 5809 5807 5806 5804 5801 5798 5794 5790 5785 5781 5778 5774 5770 5767 5765 5764 5761 5759 5756 5755 5753 5750 5748 5746
5818 5817 5817 5815 5814 5812 5809 5809 5807 5803 5801 5799 5794 5791 5787 5781 5776 5773 5769 5766 5763 5760 5758 5756 5754 5752 5749 5746 5744 5742 5740 5737
5816 5814 5810 5810 5808 5807 5804 5803 5801 5797 5793 5789 5786 5780 5776 5772 5767 5763 5761 5758 5754 5751 5747 5745 5743 5741 5739 5738 5735 5733 5731 5729
5811 5809 5806 5802 5800 5797 5795 5793 5791 5787 5783 5778 5774 5772 5768 5764 5761 5758 5754 5750 5746 5742 5739 5737 5734 5731 5729 5727 5724 5722 5719 5716
5806 5803 5801 5795 5793 5791 5790 5786 5782 5778 5774 5771 5766 5762 5759 5755 5753 5749 5744 5740 5737 5734 5730 5726 5722 5719 5715 5712 5709 5706 5702 5700
5800 5798 5795 5791 5786 5784 5781 5777 5774 5769 5766 5761 5756 5751 5747 5742 5739 5736 5732 5728 5725 5722 5718 5714 5709 5704 5700 5697 5693 5688 5683 5681
5797 5793 5788 5784 5782 5777 5773 5769 5765 5761 5756 5750 5745 5739 5734 5731 5727 5722 5717 5713 5708 5704 5699 5695 5690 5685 5680 5676 5671 5667 5662 5658
5791 5787 5782 5778 5774 5770 5766 5761 5758 5752 5746 5740 5734 5729 5724 5718 5712 5707 5701 5696 5690 5685 5679 5674 5668 5660 5655 5652 5647 5647 5641 5634
5785 5781 5775 5769 5765 5761 5757 5751 5745 5740 5734 5729 5724 5719 5713 5706 5699 5692 5686 5679 5672 5665 5658 5650 5643 5636 5627 5621 5615 5612 5608 5609
5777 5772 5766 5760 5756 5750 5744 5739 5733 5728 5722 5717 5712 5706 5700 5693 5687 5680 5672 5665 5657 5648 5639 5630 5621 5614 5607 5597 5590 5582 5576 5577
5771 5766 5760 5755 5749 5745 5741 5734 5728 5722 5717 5711 5706 5700 5694 5686 5676 5666 5655 5643 5632 5622 5613 5604 5595 5587 5578 5571 5564 5556 5547 5537
5762 5756 5751 5746 5741 5737 5732 5727 5722 5718 5712 5704 5696 5686 5676 5665 5654 5643 5632 5620 5609 5597 5586 5575 5565 5557 5546 5537 5529 5523 5518 5510
5756 5751 5746 5740 5735 5731 5726 5720 5714 5706 5697 5687 5677 5666 5655 5645 5634 5622 5608 5595 5584 5572 5560 5548 5537 5526 5516 5509 5501 5493 5486 5479
5748 5744 5739 5733 5727 5721 5715 5708 5700 5691 5682 5672 5662 5650 5638 5625 5611 5597 5583 5571 5559 5548 5535 5522 5512 5501 5493 5484 5479 5472 5464 5453